Regional Weather Roundup
Issued by NWS

Home | Current Version | Previous Version | Text Only | Print | Product List | Glossary Off
Versions: 1 2 3 4 5 6 7 8 9 10 11 12 13 14 15 16 17 18 19 20 21 22 23 24 25 26 27 28 29 30 31 32 33 34 35 36 37 38 39 40 41 42 43 44 45 46 47 48 49 50

302
ASUS43 KMKX 181700
RWRWI

WISCONSIN REGIONAL WEATHER ROUNDUP
NATIONAL WEATHER SERVICE MILWAUKEE/SULLIVAN WI
1100 AM CST SAT NOV 18 2017

NOTE: "FAIR" INDICATES FEW OR NO CLOUDS BELOW 12,000 FEET WITH NO
SIGNIFICANT WEATHER AND/OR OBSTRUCTIONS TO VISIBILITY.

WIZ001-002-006>008-014>016-023>028-181800-
NORTHWEST WISCONSIN

CITY           SKY/WX    TMP DP  RH WIND       PRES   REMARKS
SUPERIOR ARPT  MOSUNNY   31  21  68 N10       29.81R WCI  22
ASHLAND        CLOUDY    32  27  81 W10       29.75S WCI  24
HAYWARD        PTSUNNY   30  23  75 VRB6      29.75S WCI  24
SIREN          SUNNY     31  22  69 N9        29.80R WCI  22
CUMBERLAND     MOSUNNY   32  25  74 N16       29.75S WCI  21
RICE LAKE      CLOUDY    32  28  86 NW12      29.76S WCI  23
CHETEK         CLOUDY    33  29  86 NW5       29.75R WCI  28
LADYSMITH      CLOUDY    35  31  86 NW14      29.73R WCI  25
EAU CLAIRE     NOT AVBL
MENOMONIE      CLOUDY    37  31  78 W14       29.75S WCI  28
NEW RICHMOND   MOSUNNY   32  26  79 NW13      29.79S WCI  22
OSCEOLA        MOSUNNY   32  25  74 NW14      29.83S WCI  22
$$

WIZ003>005-009-010-017-018-181800-
NORTH CENTRAL WISCONSIN

CITY           SKY/WX    TMP DP  RH WIND       PRES   REMARKS
MANITOWISH WTR CLOUDY    32  32 100 N5        29.66S WCI  27
ARBOR VITAE    MOSUNNY   34  32  92 N7        29.65F WCI  28
WOODRUFF       MOSUNNY   34  32  92 N7        29.65F WCI  28
RHINELANDER    CLOUDY    33  30  88 VRB7      29.64F WCI  27
EAGLE RIVER    CLOUDY    32  29  90 N10G18    29.64S WCI  24
LAND O LAKES   CLOUDY    32  30  93 N7        29.66S WCI  26
PHILLIPS       CLOUDY    32  30  92 NW8       29.67F WCI  25
TOMAHAWK       CLOUDY    33  29  88 N8        29.66S WCI  26
MEDFORD        CLOUDY    33  31  92 N10       29.66S WCI  25
MERRILL        CLOUDY    34  32  90 N7        29.66R WCI  28
$$

WIZ029-030-035-036-043>047-181800-
CENTRAL WISCONSIN

CITY           SKY/WX    TMP DP  RH WIND       PRES   REMARKS
WAUSAU         CLOUDY    35  31  85 N12       29.63R WCI  27
MOSINEE        CLOUDY    36  32  87 N13G18    29.65R WCI  27
MARSHFIELD     CLOUDY    35  31  85 N14G21    29.65R WCI  26
STEVENS POINT  CLOUDY    34  32  92 N8        29.64R WCI  28
WAUPACA        CLOUDY    39  35  83 N7        29.62R WCI  34
WAUTOMA        CLOUDY    37  34  89 N8        29.64R WCI  31
WISC RAPIDS    CLOUDY    37  32  82 N13G23    29.66R WCI  29
CAMP DOUGLAS   NOT AVBL
$$

WIZ011>013-019>022-031-037>040-048>050-181800-
NORTHEAST WISCONSIN

CITY           SKY/WX    TMP DP  RH WIND       PRES   REMARKS
ANTIGO         CLOUDY    32  31  95 N14       29.62S WCI  22
SHAWANO        CLOUDY    39  34  80 N9        29.62R WCI  33
OCONTO         CLOUDY    37  34  87 N7G18     29.60S WCI  32
STURGEON BAY   CLOUDY    39  36  89 N16G25    29.57F WCI  30
GREEN BAY      CLOUDY    39  36  89 N12       29.60R WCI  32
MANITOWOC      CLOUDY    39  36  89 N13       29.57F WCI  31
APPLETON       CLOUDY    37  36  93 N12       29.59R WCI  30
CLINTONVILLE   CLOUDY    37  34  87 N8        29.61S WCI  31
OSHKOSH        CLOUDY    38  34  85 N14       29.59F WCI  30
$$

WIZ032>034-041-042-053>061-181800-
SOUTHWEST WISCONSIN

CITY           SKY/WX    TMP DP  RH WIND       PRES   REMARKS
LA CROSSE      CLOUDY    39  32  76 N14       29.71R WCI  31
SPARTA         CLOUDY    35  32  90 NW7       29.70R WCI  29
VIROQUA        CLOUDY    34  34 100 N10G21    29.67R WCI  26
BOSCOBEL       CLOUDY    39  35  86 N8        29.69R WCI  33
PRAIRIE DU CHI CLOUDY    37  34  89 NW14      29.69R WCI  29
PLATTEVILLE    CLOUDY    37  37 100 N17       29.63R WCI  28
$$

WIZ056-057-062-063-064-067-068-181800-
SOUTH CENTRAL WISCONSIN

CITY           SKY/WX    TMP DP  RH WIND       PRES   REMARKS
REEDSBURG      CLOUDY    36  36 100 N12G20    29.64R WCI  28
BARABOO/DELLS  CLOUDY    36  34  94 N10G16    29.62S WCI  28
LONE ROCK      CLOUDY    38  35  89 NW15G26   29.66R WCI  29
MINERAL POINT  CLOUDY    36  36 100 N17G23    29.60R WCI  25
MADISON        CLOUDY    37  34  89 N13G25    29.59S WCI  29
MIDDLETON      CLOUDY    38  37  94 N13G18    29.60R WCI  30
WATERTOWN      CLOUDY    35  35 100 N13G20    29.57S WCI  26
MONROE         CLOUDY    34  34 100 N16G22    29.56R WCI  23
JANESVILLE     LGT SNOW  36  36 100 N12G17    29.55F WCI  27
$$

WIZ051-052-058>065-066-070>072-181800-
SOUTHEAST WISCONSIN

CITY           SKY/WX    TMP DP  RH WIND       PRES   REMARKS
MILWAUKEE      FLURRIES  36  35  96 N12       29.52F WCI  28
WAUKESHA       LGT RAIN  34  32  93 NW12G18   29.55F WCI  25
MILWAUKEE/TIMM LGT SNOW  34  32  93 N12       29.55F FOG     WCI  25
RACINE         LGT RAIN  36  35  96 N15G25    29.52F WCI  27
BURLINGTON     LGT SNOW  35  35 100 N13       29.53S WCI  26
KENOSHA        LGT RAIN  35  33  92 N10G21    29.50F WCI  27
FOND DU LAC    CLOUDY    38  33  82 N12       29.60S WCI  30
SHEBOYGAN      CLOUDY    38  37  97 N15       29.56F WCI  29
WEST BEND      DRIZZLE   36  36 100 N13       29.56S WCI  27
JUNEAU         CLOUDY    36  34  92 N20       29.59S WCI  25
$$

LSZ147-162-181800-
LAKE SUPERIOR

STATION/POSITION TIME  TEMP    WIND        PRES    WAVE
                       AIR SEA DIR/SP/G            HT/PER
                 (UTC) (F)     (DEG/KT/KT) (MB)    (FT/S)
DEVILS ISLAND    1600   32     320/  9/ 13 1008.2R
SAXON HARBOR     1640   35     290/ 10/ 14 1006.4S
$$

LMZ867-665-643>646-181800-
LAKE MICHIGAN

STATION/POSITION TIME  TEMP    WIND        PRES    WAVE
                       AIR SEA DIR/SP/G            HT/PER
                 (UTC) (F)     (DEG/KT/KT) (MB)    (FT/S)
N MID LAKE BUOY  1550   41 48  360/ 19/ 23 1001.9R   5/ 5
NORTHPORT PIER   1640   41     350/ 20/ 23 1001.4F
SHEBOYGAN LAKESH 1600   38     340/ 17/ 21 1001.4R
PORT WASHINGTON  1640   38     330/  8/ 13 1001.7F
MILWAUKEE LAKESH 1630   35     330/ 12/ 14   N/A
S MID LAKE BUOY  1550   44 49   10/ 25/ 29  997.9F   3/ 5
KENOSHA   LAKESH 1600   37     360/ 22/ 27  999.3
$$

TC  - TEMPERATURE IN CELSIUS
VSB - VISIBILITY IN STATUTE MILES
WCI - WIND CHILL INDEX
HX  - HEAT INDEX





USA.gov is the U.S. government's official web portal to all federal, state and local government web resources and services.